Total_Precipitation_Accumulation
4.29 4.42 4.45 4.49 4.05 4.04 4.22 4.53 4.27 4.43 4.38 3.90 3.37 3.17 3.18 3.16 3.13 3.26 3.56 3.55 3.34 3.47 4.33 4.83 4.67 4.27 3.75 3.24 2.94 2.80 2.74 2.59 2.37 2.04 1.90 2.00 1.99 1.99 1.89 1.68 1.57 1.32 1.04
4.59 4.67 4.65 4.59 4.10 3.94 4.22 4.51 4.40 4.92 4.81 4.57 3.93 3.54 3.35 3.34 3.28 3.34 3.67 3.86 3.81 3.75 4.26 4.91 5.19 5.12 4.67 4.05 3.54 3.21 3.15 3.08 2.82 2.33 2.07 2.15 2.22 2.16 2.06 1.88 1.61 1.37 1.14
4.83 4.63 4.61 4.43 4.26 4.16 4.31 4.44 4.56 4.95 4.62 4.52 4.38 4.03 3.77 3.52 3.31 3.51 3.91 4.33 3.92 3.84 4.26 4.85 5.33 5.32 5.16 4.89 4.34 3.88 3.48 3.21 3.03 2.64 2.25 2.10 2.13 2.06 1.96 1.88 1.71 1.48 1.21
4.70 4.85 4.58 4.31 4.37 4.29 4.53 4.91 4.94 5.00 5.07 4.95 4.70 4.37 4.10 3.97 3.47 3.51 3.70 3.94 4.18 3.60 4.05 4.84 5.19 4.96 5.05 5.28 5.21 4.92 4.39 3.72 3.37 2.99 2.59 2.29 2.18 2.07 1.95 1.89 1.82 1.64 1.35
4.33 4.89 4.81 4.75 4.61 4.82 4.80 4.46 5.14 5.30 5.24 5.14 4.45 4.34 3.87 3.79 3.70 3.47 3.58 3.67 3.92 3.86 3.89 4.01 4.65 4.53 4.82 5.46 5.86 5.94 5.58 4.86 4.14 3.64 3.21 2.85 2.64 2.34 2.08 1.96 1.86 1.63 1.39
4.32 4.77 4.71 4.71 4.84 5.28 5.40 5.23 5.52 5.36 5.12 5.15 4.33 4.09 3.77 3.38 3.30 3.26 3.09 3.35 3.44 3.14 3.33 3.61 4.03 3.49 3.79 4.36 5.02 5.82 6.29 6.22 5.46 4.55 4.06 3.73 3.48 2.99 2.40 2.06 1.84 1.65 1.46
4.12 4.61 4.47 5.02 4.97 5.14 5.27 5.15 5.35 5.18 4.93 5.01 4.96 4.37 3.68 3.20 3.07 2.86 2.86 3.09 3.02 3.04 3.39 3.86 4.14 4.00 3.55 3.46 3.78 4.70 5.85 6.54 6.30 5.48 4.93 4.53 4.27 3.74 2.94 2.47 2.03 1.72 1.55
3.77 3.95 4.62 4.68 4.78 5.01 5.04 5.00 5.05 4.76 4.45 4.84 5.16 5.04 4.24 3.76 3.22 2.60 2.82 2.86 3.01 3.30 3.30 3.39 3.90 4.24 3.99 3.98 3.47 3.47 4.76 5.99 6.57 6.34 5.97 5.55 5.12 4.34 3.55 2.97 2.36 1.91 1.69
3.74 3.93 4.29 4.41 4.56 4.49 4.73 4.95 4.76 4.69 4.59 4.66 4.90 5.23 4.72 4.02 3.38 2.89 2.71 2.78 3.15 3.47 3.36 3.31 3.23 3.45 3.52 4.02 4.12 3.51 3.67 4.16 5.11 6.35 6.80 6.62 5.78 4.56 3.76 3.31 2.83 2.30 1.91
3.47 3.63 3.88 4.13 4.31 4.25 4.48 4.30 4.42 4.61 4.71 4.55 4.66 4.56 4.52 4.24 4.02 3.45 2.93 2.79 3.06 3.17 3.14 2.89 2.87 3.20 3.36 3.83 4.01 3.36 3.01 2.99 3.45 4.77 6.01 6.30 5.84 4.80 3.98 3.67 3.61 3.19 2.51
3.34 3.36 3.58 3.82 3.94 3.86 3.91 4.14 4.53 4.46 4.42 4.36 4.53 4.61 4.75 4.50 4.11 3.86 3.42 3.15 2.94 2.65 2.70 2.75 2.72 2.82 3.08 3.55 3.76 3.17 3.01 2.75 2.65 3.07 3.92 4.62 4.97 4.71 4.18 4.03 4.30 4.28 3.78
3.28 3.25 3.36 3.71 3.78 3.69 3.66 3.84 4.00 4.05 4.11 4.27 4.31 4.23 4.45 4.46 4.26 4.24 3.74 3.34 3.00 2.48 2.39 2.45 2.58 2.72 2.86 3.15 2.97 2.82 2.91 2.70 2.44 2.37 2.66 3.22 3.79 4.14 4.06 4.12 4.46 4.77 4.80
3.17 3.21 3.20 3.35 3.29 3.29 3.40 3.70 3.74 3.68 3.73 3.88 3.89 3.97 3.95 3.81 3.95 4.08 3.95 3.44 3.04 2.46 2.40 2.29 2.29 2.59 2.66 3.06 3.13 2.94 2.73 2.57 2.33 2.22 2.29 2.45 2.81 3.21 3.59 3.83 4.27 4.70 4.95
3.05 3.01 2.90 2.86 2.82 2.92 3.03 3.47 3.53 3.46 3.58 3.59 3.47 3.86 3.70 3.43 3.64 3.67 3.74 3.90 3.54 3.08 2.96 2.67 2.29 2.35 2.56 2.82 3.00 2.88 2.43 2.41 2.23 2.14 2.10 2.14 2.29 2.49 2.78 3.06 3.40 3.70 3.96
2.59 2.77 2.70 2.56 2.53 2.70 2.89 3.08 3.13 3.14 3.32 3.29 3.37 3.49 3.24 3.15 3.22 3.27 3.50 3.83 3.93 3.60 3.37 3.11 2.63 2.35 2.39 2.64 3.00 2.65 2.49 2.40 2.20 2.08 1.96 1.89 1.91 1.98 2.10 2.27 2.47 2.68 2.80
2.56 2.57 2.57 2.47 2.43 2.45 2.55 2.82 2.82 2.93 2.99 3.03 3.18 3.21 3.14 3.04 3.14 3.09 3.16 3.41 3.70 3.76 3.46 3.06 2.74 2.38 2.48 2.40 2.67 2.59 2.60 2.56 2.25 2.02 1.81 1.72 1.74 1.79 1.89 1.98 2.03 2.18 2.23
2.63 2.61 2.60 2.60 2.48 2.39 2.49 2.62 2.47 2.69 2.71 2.76 2.70 2.73 2.79 3.02 3.12 3.04 3.10 3.16 3.43 3.76 3.64 3.31 2.99 2.77 2.69 2.66 2.51 2.47 2.38 2.26 2.06 1.92 1.69 1.59 1.60 1.64 1.70 1.77 1.88 2.02 2.13
2.25 2.27 2.25 2.26 2.30 2.47 2.61 2.53 2.48 2.52 2.57 2.49 2.54 2.69 2.56 2.76 2.93 2.86 2.99 3.01 3.19 3.56 3.72 3.78 3.65 3.34 3.10 2.91 2.85 2.63 2.20 2.02 2.06 2.05 1.83 1.66 1.58 1.56 1.56 1.60 1.71 1.88 2.00
2.22 2.19 2.18 2.17 2.19 2.41 2.56 2.48 2.50 2.58 2.58 2.41 2.51 2.53 2.39 2.55 2.62 2.71 2.78 2.84 3.04 3.29 3.63 3.56 3.52 3.44 3.31 3.04 3.14 2.80 2.47 2.40 1.98 1.96 1.93 1.76 1.66 1.59 1.56 1.58 1.65 1.72 1.81
2.31 2.40 2.42 2.32 2.32 2.22 2.23 2.38 2.52 2.51 2.46 2.34 2.36 2.29 2.18 2.20 2.31 2.54 2.57 2.72 2.95 3.18 3.40 3.34 3.36 3.47 3.56 3.55 3.55 3.23 3.02 2.78 2.39 1.95 2.00 1.86 1.81 1.69 1.56 1.49 1.51 1.60 1.74
2.30 2.54 2.55 2.51 2.47 2.26 2.07 2.20 2.33 2.24 2.27 2.22 2.18 2.03 1.85 1.93 2.07 2.16 2.06 2.43 2.80 2.94 3.02 3.09 3.16 3.35 3.49 3.73 3.53 3.39 3.28 3.24 2.92 2.46 2.39 2.05 1.92 1.72 1.56 1.49 1.49 1.48 1.53
2.46 2.50 2.42 2.39 2.29 1.96 2.02 1.97 1.93 1.98 2.05 2.07 2.09 2.07 1.94 1.87 1.81 1.82 1.76 1.94 2.29 2.47 2.68 2.97 3.07 3.26 3.34 3.36 3.54 3.52 3.49 3.35 3.05 2.72 2.70 2.62 2.48 2.34 2.05 1.69 1.60 1.47 1.38
2.37 2.25 2.20 2.20 2.13 2.05 1.91 1.67 1.60 1.73 1.92 2.01 2.05 2.08 1.82 1.67 1.73 1.59 1.66 1.73 1.78 1.90 2.08 2.47 2.75 2.85 2.92 2.97 3.27 3.34 3.35 3.22 3.12 2.97 3.00 2.98 2.87 2.62 2.18 1.99 1.93 1.66 1.53
2.21 2.19 2.07 2.05 2.14 2.04 1.98 1.71 1.58 1.53 1.72 1.76 1.75 1.79 1.84 1.80 1.72 1.77 1.74 1.70 1.59 1.63 1.75 1.77 1.92 2.16 2.45 2.71 2.91 3.09 3.38 3.33 3.25 3.16 3.10 3.16 3.01 2.86 2.46 2.18 2.08 1.83 1.72
2.14 2.15 2.11 2.12 2.12 2.06 2.02 1.81 1.74 1.66 1.74 1.72 1.73 1.75 1.85 1.89 1.95 1.85 1.77 1.77 1.74 1.72 1.69 1.67 1.59 1.70 1.89 2.03 2.23 2.52 2.88 3.20 3.39 3.37 3.15 3.23 3.16 3.18 3.09 2.68 2.29 2.12 1.87
2.22 2.23 2.22 2.16 2.04 1.99 1.89 1.71 1.70 1.67 1.85 1.95 2.03 2.00 1.92 1.78 1.81 1.73 1.68 1.74 1.69 1.67 1.59 1.55 1.49 1.46 1.46 1.61 1.82 2.04 2.37 2.76 3.02 3.17 3.10 3.23 3.38 3.73 3.87 3.31 2.70 2.30 2.08